Location: Roanoke
(37.2710°N, 79.9420°W)
Time: 16:47:37
(UTC-05:00)

Courier 1B Rocket - Pass Details

Date: 17 November 2019
Orbit: 920 x 1202 km, 28.2° (Epoch: 10 December)

Event Time Altitude Azimuth Distance (km) Brightness Sun altitude
Rises 20:32:35 0° 265° (W) 4,058 9.1 -40.6°
Reaches altitude 10° 20:35:55 10° 253° (WSW) 3,114 8.2 -41.2°
Enters shadow 20:40:26 24° 220° (SW) 2,244 7.0 -42.1°
Maximum altitude 20:42:04 26° 201° (SSW) 2,164 - -42.4°
Drops below altitude 10° 20:48:13 10° 148° (SSE) 3,108 - -43.6°
Sets 20:51:33 0° 137° (SE) 4,047 - -44.3°
